This demonstration page uses our WeatherBlox Daily Observations layout. Learn more.

Left ArrowRight Arrow

39.51506, -84.39828

Hourly Observations for November 14, 2021

Temp ( °F °C ) Dew Point ( °F °C ) Humidity (%) Winds ( mph kmh ) Pressure ( in mb ) Visibility ( mi km ) Precip ( " mm )
12:15 am 00:15 Cloudy 36 2.1 27 -2.7 71 71 WSW 8 13 30.08 1019 10 16 0.00 0.00
12:35 am 00:35 Cloudy 36 2.1 28 -2.4 72 72 WSW 7 11 30.07 1018 10 16 0.00 0.00
12:55 am 00:55 Cloudy 36 2.2 28 -2.4 72 72 WSW 7 11 30.08 1019 10 16 0.00 0.00
1:15 am 01:15 Cloudy 36 2.2 28 -2.4 72 72 WSW 8 13 30.07 1018 10 16 0.00 0.00
1:35 am 01:35 Cloudy 36 2.2 27 -2.6 71 71 WSW 8 13 30.07 1018 10 16 0.00 0.00
1:55 am 01:55 Cloudy 36 2.2 28 -2.5 71 71 WSW 5 7 30.06 1018 10 16 0.00 0.00
2:15 am 02:15 Cloudy 36 2.2 27 -2.6 71 71 WSW 5 7 30.05 1018 10 16 0.00 0.00
2:35 am 02:35 Cloudy 36 2.1 28 -2.4 72 72 WSW 6 9 30.05 1018 10 16 0.00 0.00
2:55 am 02:55 Cloudy 36 2.2 28 -2.3 72 72 WSW 7 11 30.04 1017 10 16 0.00 0.00
3:15 am 03:15 Cloudy 36 2.3 28 -2.1 73 73 WSW 8 13 30.05 1018 10 16 0.00 0.00
3:35 am 03:35 Cloudy 36 2.4 28 -2.1 72 72 WSW 9 15 30.04 1017 10 16 0.00 0.00
3:55 am 03:55 Cloudy 36 2.4 29 -1.8 74 74 SW 9 15 30.03 1017 10 16 0.00 0.00
4:15 am 04:15 Cloudy 37 2.5 29 -1.9 73 73 WSW 12 19 30.03 1017 10 16 0.00 0.00
4:35 am 04:35 Cloudy 37 2.7 28 -2.4 69 69 SW 16 26 30.02 1017 10 16 0.00 0.00
4:55 am 04:55 Cloudy 37 2.6 28 -2.5 69 69 WSW 14 22 30.03 1017 10 16 0.00 0.00
5:15 am 05:15 Cloudy 37 2.5 28 -2.5 70 70 WSW 15 24 30.01 1016 10 16 0.00 0.00
5:35 am 05:35 Cloudy 36 2.4 28 -2.5 70 70 WSW 15 24 30.03 1017 10 16 0.00 0.00
5:55 am 05:55 Cloudy 36 2.3 28 -2.3 72 72 SW 14 22 30.01 1016 10 16 0.00 0.00
6:15 am 06:15 Cloudy 36 2.3 28 -2.1 73 73 SW 13 20 29.99 1016 10 16 0.00 0.00
6:35 am 06:35 Cloudy 36 2.1 28 -2.1 74 74 SW 10 17 29.96 1015 10 16 0.00 0.00
6:55 am 06:55 Cloudy 35 1.8 29 -1.5 79 79 SW 13 20 29.97 1015 10 16 0.00 0.00
7:15 am 07:15 Cloudy 35 1.8 30 -1.2 81 81 SSW 12 19 29.95 1014 10 16 0.00 0.00
7:35 am 07:35 Cloudy 35 1.9 30 -0.9 82 82 SW 14 22 29.96 1015 10 16 0.00 0.00
7:55 am 07:55 Cloudy 36 2 30 -0.9 81 81 SSW 14 22 29.94 1014 10 16 0.00 0.00
8:15 am 08:15 Cloudy 36 2.1 31 -0.5 83 83 SSW 12 19 29.93 1014 10 16 0.00 0.00
8:35 am 08:35 Cloudy 36 2.2 31 -0.6 82 82 SSW 14 22 29.93 1014 10 16 0.00 0.00
8:55 am 08:55 Cloudy 36 2.2 31 -0.6 82 82 SSW 14 22 29.93 1014 10 16 0.00 0.00
9:15 am 09:15 Cloudy 36 2.2 31 -0.5 83 83 SSW 14 22 29.92 1013 10 16 0.00 0.00
9:35 am 09:35 Cloudy with Light Snow 35 1.7 32 0.2 90 90 SSW 12 19 29.92 1013 5 8 0.00 0.00
9:55 am 09:55 Cloudy with Light Rain 35 1.9 33 0.6 91 91 SSW 10 17 29.91 1013 7 11 0.00 0.00
10:15 am 10:15 Cloudy with Light Snow 35 1.7 33 0.7 93 93 SSW 13 20 29.90 1013 5 8 0.01 0.25
10:35 am 10:35 Cloudy with Light Snow 34 1.3 33 0.7 96 96 SSW 14 22 29.87 1012 3 5 0.02 0.51
10:55 am 10:55 Cloudy with Light Snow 33 0.7 33 0.3 97 97 SSW 8 13 29.86 1011 2 2 0.03 0.76
11:15 am 11:15 Cloudy with Light Snow 33 0.5 32 0.2 98 98 SW 9 15 29.87 1012 1 2 0.02 0.51
11:35 am 11:35 Cloudy with Light Snow 33 0.5 33 0.3 99 99 SW 10 17 29.85 1011 2 3 0.03 0.76
11:55 am 11:55 Cloudy with Light Snow 33 0.6 33 0.4 99 99 SSW 9 15 29.84 1011 3 4 0.04 1.02
12:15 pm 12:15 Cloudy with Light Snow 33 0.6 33 0.4 99 99 SW 10 17 29.83 1010 2 3 0.01 0.25
12:35 pm 12:35 Cloudy with Light Snow 33 0.6 33 0.4 99 99 SW 9 15 29.82 1010 2 3 0.01 0.25
12:55 pm 12:55 Cloudy with Light Snow 34 1.1 34 0.9 99 99 SW 9 15 29.81 1010 5 8 0.02 0.51
1:15 pm 13:15 Cloudy with Mist and Fog 35 1.8 35 1.6 99 99 SW 10 17 29.79 1009 3 5 0.00 0.00
1:35 pm 13:35 Cloudy with Mist and Fog 37 2.7 36 2.4 98 98 SW 14 22 29.79 1009 7 11 0.00 0.00
1:55 pm 13:55 Cloudy with Mist and Fog 37 3 37 2.6 97 97 WSW 15 24 29.79 1009 3 4 0.00 0.00
2:15 pm 14:15 Cloudy with Drizzle 38 3.1 37 2.7 97 97 WSW 17 28 29.79 1009 3 4 0.00 0.00
2:35 pm 14:35 Cloudy 38 3.3 37 2.8 97 97 WSW 13 20 29.79 1009 10 16 0.00 0.00
2:55 pm 14:55 Cloudy with Light Rain 38 3.5 37 3 97 97 WSW 10 17 29.79 1009 3 5 0.00 0.00
3:15 pm 15:15 Cloudy with Drizzle 39 3.7 38 3.2 97 97 WSW 12 19 29.79 1009 7 11 0.00 0.00
3:35 pm 15:35 Cloudy with Drizzle 39 3.9 38 3.4 97 97 WSW 12 19 29.79 1009 10 16 0.00 0.00
3:55 pm 15:55 Cloudy with Light Rain 38 3.4 36 2.3 93 93 W 14 22 29.82 1010 5 8 0.00 0.00
4:15 pm 16:15 Cloudy with Light Rain 35 1.9 34 0.9 93 93 WNW 17 28 29.85 1011 4 6 0.00 0.00
4:35 pm 16:35 Cloudy 35 1.9 33 0.5 91 91 WNW 14 22 29.86 1011 10 16 0.00 0.00
4:55 pm 16:55 Cloudy 35 1.9 32 -0.1 87 87 W 13 20 29.87 1012 10 16 0.00 0.00
5:15 pm 17:15 Cloudy 35 1.9 32 -0.1 87 87 W 12 19 29.88 1012 10 16 0.00 0.00
5:35 pm 17:35 Cloudy 35 1.9 31 -0.8 83 83 W 15 24 29.89 1012 10 16 0.00 0.00
5:55 pm 17:55 Cloudy 35 1.9 31 -0.6 84 84 W 16 26 29.90 1013 10 16 0.00 0.00
6:15 pm 18:15 Cloudy 35 1.9 31 -0.6 84 84 W 13 20 29.91 1013 10 16 0.00 0.00
6:35 pm 18:35 Cloudy 35 1.7 31 -0.5 86 86 W 17 28 29.92 1013 10 16 0.00 0.00
6:55 pm 18:55 Cloudy 35 1.7 31 -0.4 86 86 W 14 22 29.92 1013 10 16 0.00 0.00
7:15 pm 19:15 Cloudy 35 1.8 31 -0.7 84 84 W 15 24 29.93 1014 10 16 0.00 0.00
7:35 pm 19:35 Cloudy 35 1.9 30 -0.9 82 82 W 17 28 29.93 1014 10 16 0.00 0.00
7:55 pm 19:55 Cloudy 35 1.9 30 -1.1 81 81 W 18 30 29.94 1014 10 16 0.00 0.00
8:15 pm 20:15 Cloudy with Light Snow 35 1.8 30 -1.1 81 81 W 17 28 29.94 1014 10 16 0.00 0.00
8:35 pm 20:35 Cloudy 35 1.8 30 -1.1 81 81 W 17 28 29.95 1014 10 16 0.00 0.00
8:55 pm 20:55 Cloudy 35 1.9 30 -1.2 80 80 W 17 28 29.96 1015 10 16 0.00 0.00
9:15 pm 21:15 Cloudy 36 2.1 29 -1.6 77 77 W 17 28 29.97 1015 10 16 0.00 0.00
9:35 pm 21:35 Cloudy 36 2.1 29 -1.8 76 76 W 16 26 29.97 1015 10 16 0.00 0.00
9:55 pm 21:55 Cloudy 36 2.1 28 -2.2 73 73 W 17 28 29.98 1015 10 16 0.00 0.00
10:15 pm 22:15 Cloudy 36 2 28 -2.5 72 72 W 21 33 29.98 1015 10 16 0.00 0.00
10:35 pm 22:35 Cloudy 36 2 28 -2.4 73 73 W 17 28 29.99 1016 10 16 0.00 0.00
10:55 pm 22:55 Cloudy 36 2 27 -2.8 71 71 W 16 26 29.99 1016 10 16 0.00 0.00
11:15 pm 23:15 Cloudy 36 2 27 -2.9 70 70 W 20 31 30.00 1016 10 16 0.00 0.00
11:35 pm 23:35 Cloudy 35 1.9 27 -2.9 71 71 W 16 26 30.01 1016 10 16 0.00 0.00
11:55 pm 23:55 Cloudy 36 2 27 -3 70 70 W 14 22 30.02 1017 10 16 0.00 0.00

Powered by AerisWeather